CZ-2C DEB

Satellite information

Favourite Embed

Satellite Type and Status

DEBRISIN ORBIT

Key statistics

Satellite CZ-2C DEB at a glance.

Uptime

5771

Days in orbit

Revolutions

≈ 14.4

Per day

Orbit

SSO

Sun Synchronous Orbit

Inclination

98.8

Latest

Satellite identification and parameters

Extended collection of information and parameters for CZ-2C DEB.

Object identification

Identified? True

Debris? True

Object name: CZ-2C DEB

International designator: 2009-061E

Object number (NORAD): 36092

Object ID (CCSDS): 36092

Country: PEOPLES REPUBLIC OF CHINA (PRC)

Current information (Y/N): Y

RCS size: SMALL

Orbital parameters

Period: 99.953 minutes

Inclination: 98.751 deg

SMA: 7134.418 km

Apoapsis: 845.324 km

Periapsis: 667.242 km

RAAN: 237.7064 deg

Eccentricy: 0.01248045

Argument of periapsis: 146.1441 deg

Mean anomaly: 273.3346 deg

Mean motion: 14.40671362 rev/day

Mean motion (dot): 0.00002735 rev/day2

B* drag term: 0.00079494398 1/REarth

Two-line elements (TLE)

Creation date: Aug. 30, 2025, 3:38 a.m.

Reference frame: TEME

Reference center: EARTH

Epoch: Aug. 29, 2025, 10:17 p.m. UTC

TLE line 0: 0 CZ-2C DEB

TLE line 1: 1 36092U 09061E 25241.92850226 .00002735 00000-0 79494-3 0 9997

TLE line 2: 2 36092 98.7510 237.7064 0124804 146.1441 273.3346 14.40671362823387

Live tracking on map

Real-time ground track for satellite CZ-2C DEB.

In-orbit conjunctions

A list of the most updated potential collisions computed for object CZ-2C DEB.

Target Orbit TCA Probability of collision Miss distance Type
CZ-2D R/B SSO 2025-05-24 03:12:40 0.0001554139 717.0 (m) ROCKET BODY
CZ-6A DEB LEO 2024-09-18 16:34:31 0.000241306 438.0 (m) DEBRIS

Associated space launch

Chinese experimental satellite of unknown purpose

CZ-2C DEB was lifted into orbit during the mission ‘Long March 2C | Shi Jian 11-01’, on board a Long March 2 space rocket.

The launch took place on Nov. 12, 2009, 2:45 a.m. from Launch Area 4 (SLS-2 / 603).

For more information about the launch, click the button.

Launch to space Long March 2C | Shi Jian 11-01
Long March 2C | Shi Jian 11-01

Agency: N/A

Status: Launch Successful

Launch date: Nov. 12, 2009, 2:45 a.m. UTC

Rocket: Long March 2

Launch pad: Launch Area 4 (SLS-2 / 603)

Location: Jiuquan Satellite Launch Center, People's Republic of China

...

Latest news about this satellite

There are no fresh news available about this satellite. Check back as we update our databases every day.


Newsletter sign-up

Weekly statistics, charts and insights to help you stay on top of the space industry.